Location: Ernez
(36.4595°N, 29.8755°E)
Time: 01:14:20
(UTC+00:00)

Cosmos 1833 Rocket - Pass Details

Date: 13 November 2025
Orbit: 829 x 840 km, 71.0° (Epoch: 07 December)

Event Time Altitude Azimuth Distance (km) Brightness Sun altitude
Rises 16:08:59 0° 337° (NNW) 3,399 6.0 -15.4°
Reaches altitude 10° 16:11:26 10° 337° (NNW) 2,461 5.3 -15.9°
Maximum altitude 16:17:05 84° 251° (WSW) 848 2.7 -17.0°
Drops below altitude 10° 16:22:43 10° 162° (SSE) 2,444 5.0 -18.1°
Sets 16:25:08 0° 162° (SSE) 3,373 5.7 -18.6°
